DC4AT Weather Reports


Display with metric or nautical units.
time (UTC)temp
F
wind
direction
speed
MPH
gust
MPH
rain 1hr
in
rain 24hr
in
rain mn
in
humidity
%
barometer
mb
20260505041334 55 61 0.0 0.0 0.00 0.15 0.01 79 1010.4
20260505040334 55 61 0.0 0.0 0.00 0.15 0.01 79 1010.5
20260505035334 55 61 0.0 0.0 0.00 0.15 0.01 79 1010.6
20260505034334 55 61 0.0 0.0 0.00 0.15 0.01 79 1010.6
20260505033334 55 61 0.0 0.0 0.00 0.15 0.01 79 1010.6
20260505032334 55 61 0.0 0.0 0.00 0.15 0.01 79 1010.6
20260505031334 55 61 0.0 0.0 0.00 0.15 0.01 79 1010.7
20260505030334 55 61 0.0 0.0 0.00 0.15 0.01 79 1010.6
20260505025334 55 61 0.0 0.0 0.00 0.15 0.01 79 1010.8
20260505024334 55 61 0.0 0.0 0.00 0.15 0.01 79 1010.9
20260505023334 55 61 0.0 0.0 0.00 0.15 0.01 79 1010.9
20260505022334 55 61 0.0 0.0 0.00 0.15 0.01 79 1011.0
20260505021334 55 61 0.0 0.0 0.00 0.15 0.01 79 1011.1
20260505020335 55 61 0.0 0.0 0.00 0.15 0.01 79 1011.0
20260505015335 55 61 0.0 0.0 0.00 0.15 0.01 78 1011.1
20260505014335 55 61 0.0 0.0 0.00 0.15 0.01 79 1011.1
20260505013335 55 61 0.0 0.0 0.00 0.15 0.01 79 1011.1
20260505012335 55 61 0.0 0.0 0.00 0.15 0.01 79 1011.2
20260505011335 55 61 0.0 0.0 0.00 0.15 0.01 79 1011.3
20260505010335 55 61 0.0 0.0 0.00 0.15 0.01 79 1011.4
20260505005335 55 61 0.0 0.0 0.00 0.15 0.01 79 1011.4
20260505004335 55 61 0.0 0.0 0.00 0.15 0.01 79 1011.4
20260505003335 55 61 0.0 0.0 0.01 0.15 0.01 79 1011.4
20260505002335 55 61 0.0 0.0 0.01 0.15 0.01 79 1011.6
20260505001335 55 61 0.0 0.0 0.01 0.15 0.01 79 1011.7
20260505000335 55 61 1.0 0.0 0.01 0.15 0.01 79 1011.6
20260504235335 55 61 2.0 5.0 0.01 0.15 0.01 80 1011.5
20260504234335 55 41 3.0 5.0 0.01 0.15 0.01 80 1011.5
20260504233335 55 65 0.0 4.0 0.00 0.14 0.00 80 1011.9
20260504232335 55 93 0.0 0.0 0.00 0.14 0.00 80 1012.0
20260504231335 55 93 0.0 0.0 0.00 0.14 0.00 80 1012.3
20260504230335 55 93 0.0 0.0 0.00 0.14 0.00 80 1012.4
20260504225335 55 93 0.0 0.0 0.00 0.14 0.00 80 1012.5
20260504224335 55 93 0.0 0.0 0.00 0.14 0.00 80 1012.6
20260504223335 55 93 0.0 0.0 0.00 0.14 0.00 80 1012.6
20260504222335 55 93 0.0 0.0 0.00 0.14 0.00 80 1012.6
20260504221335 55 93 0.0 1.0 0.00 0.14 0.14 80 1012.6
20260504220335 55 93 0.0 0.0 0.00 0.14 0.14 81 1012.6
20260504215335 55 93 0.0 0.0 0.00 0.14 0.14 80 1012.6
20260504214335 55 93 0.0 0.0 0.00 0.14 0.14 81 1012.7
20260504213335 56 93 0.0 0.0 0.00 0.14 0.14 81 1012.7
20260504212335 56 93 1.0 2.0 0.00 0.14 0.14 81 1012.8
20260504211335 56 107 0.0 2.0 0.01 0.14 0.14 81 1012.8
20260504210335 56 107 0.0 2.0 0.02 0.14 0.14 81 1013.0
20260504205335 56 107 0.0 0.0 0.03 0.14 0.14 81 1013.2
20260504204335 56 107 0.0 0.0 0.06 0.14 0.14 81 1013.3
20260504203335 56 107 0.0 0.0 0.07 0.14 0.14 81 1013.6
20260504202335 56 107 0.0 1.0 0.10 0.14 0.14 81 1013.5
20260504201335 57 106 0.0 1.0 0.13 0.13 0.13 82 1013.3
20260504200335 57 106 0.0 1.0 0.12 0.12 0.12 82 1013.2
20260504195335 57 106 1.0 2.0 0.11 0.11 0.11 82 1013.3
20260504194335 57 106 0.0 1.0 0.09 0.09 0.09 82 1013.2
20260504193335 57 106 0.0 0.0 0.07 0.07 0.07 82 1013.0
20260504192335 57 106 0.0 0.0 0.04 0.04 0.04 82 1013.0
20260504191335 58 106 0.0 0.0 0.01 0.01 0.01 83 1013.0
20260504190335 58 106 0.0 2.0 0.00 0.00 0.00 83 1013.0
20260504185335 58 106 1.0 2.0 0.00 0.00 0.00 84 1013.1
20260504184335 59 233 0.0 2.0 0.00 0.00 0.00 84 1013.1
20260504183336 59 233 1.0 2.0 0.00 0.00 0.00 85 1013.2
20260504182336 60 236 2.0 4.0 0.00 0.00 0.00 84 1012.9
20260504181336 61 265 2.0 6.0 0.00 0.00 0.00 82 1012.7
20260504180336 61 230 4.0 6.0 0.00 0.00 0.00 78 1012.7
20260504175336 62 261 4.0 8.0 0.00 0.00 0.00 75 1012.3
20260504174336 63 327 4.0 9.0 0.00 0.00 0.00 75 1012.2
20260504173336 63 236 4.0 5.0 0.00 0.00 0.00 73 1012.0
20260504172336 63 252 3.0 6.0 0.00 0.00 0.00 74 1011.9
20260504171336 63 72 0.0 0.0 0.00 0.00 0.00 75 1011.6
20260504170336 63 73 0.0 0.0 0.00 0.00 0.00 75 1011.5
20260504160336 68 280 1.0 6.0 0.00 0.00 0.00 69 1011.6
20260504150336 69 45 0.0 3.0 0.00 0.00 0.00 58 1011.7
20260504140336 71 275 3.0 7.0 0.00 0.00 0.00 55 1011.9
20260504130336 68 44 4.0 7.0 0.00 0.00 0.00 61 1012.3
20260504110337 66 262 4.0 6.0 0.00 0.00 0.00 63 1013.1
20260504100337 64 226 6.0 11.0 0.00 0.00 0.00 69 1013.7
20260504081337 59 290 1.0 4.0 0.00 0.00 0.00 75 1014.1
20260504080337 59 263 3.0 4.0 0.00 0.00 0.00 75 1014.1
20260504070337 58 271 3.0 4.0 0.00 0.00 0.00 75 1013.7
20260504050337 54 67 0.0 0.0 0.00 0.00 0.00 81 1012.8
20260504045337 54 67 0.0 0.0 0.00 0.00 0.00 80 1012.6
20260504044337 53 67 0.0 0.0 0.00 0.00 0.00 80 1012.6